User: anonymous   Login
Location: Gairloch Mountain Observatory
(46.1383°N, 60.9640°W)
Time: 11:33:22
(UTC-04:00)
Language:

CENTAUR R/B - Orbit

View from above orbital plane
View from above orbital plane
View from above satellite
View from above satellite

Ground track
Ground track

The orbit data is extracted from the following two-line orbital elements,

1 26906U 01040B   16034.23673417 0.00000000  00000-0  00000-0 0    08
2 26906  63.4615 174.4914 0305000 343.6589  16.3410 13.43977713    06
Epoch (UTC): 03 February 2016 05:40:53
Eccentricity: 0.0305000
inclination: 63.4615°
perigee height: 866 km
apogee height: 1322 km
right ascension of ascending node: 174.4914°
argument of perigee: 343.6589°
revolutions per day: 13.43977713
mean anomaly at epoch: 16.3410°
orbit number at epoch: 0

The dashed part of the orbit path shows where the satellite is in the earth's shadow,  

DLR